STARLINK-36599, 67638

Orbit data source: Space-Track

STARLINK-36599, 67638 is a payload satellite owned by SpaceX/Seattle (US) in LEO that was launched on Fri, 30 Jan 2026 UTC via an FALCON 9 launch vehicle from the Air Force Eastern Test Range (AFETR). Payload-class satellites include a variety of spacecraft equipped with specific instruments for various scientific and technological missions. These include communications satellites like Starlink; space stations such as the ISS; scientific satellites like the Hubble; Earth observation satellites from companies like Planet Labs, Umbra, and HawkEye 360; GPS; miniature CubeSats for education and research; and military/defense satellites.

Loading next visibility...
Identifier
67638, 2026-020X
Orbit
LEO
Country
Flag of USUS
Related business
Manufacturer
SpaceX/Seattle
Mission
Operational spacecraft
Bus & Motor
STARLINK V2MO, Unknown motor
Mass
575 kg wet, ~530 kg dry
Launch date (UTC)
2026-01-30 (1 week ago)
Launch vehicle
FALCON 9
Launch site
Air Force Eastern Test Range (AFETR)
Object type
Payload
Rocket body
Debris
Shape & HBR
Unknown
Radar Cross Section
RCS unknown

Expand to show TLE details & history
Last TLE update: 6 hours ago

TLE from 6 hours ago
0 STARLINK-36599
1 67638U 26020X   26037.83335647 -.01908682  99500-3 -54389-2 0  9990
2 67638  42.9999 329.8979 0001782 261.5955 110.0362 15.92502694  2437
Epoch: 2026-02-06T20:00Z
TLE epoch observation values (Epoch: 2026-02-06T20:00:01.999Z)
Latitude
7.90619°
Longitude
-98.56037°
Altitude
294.776 km
Speed
7.733 km/s
True Right ascension
22h 33m 39s
True Declination
7° 51' 22"
Sunlit
Object was in daylight at epoch
Visualization orbit readout
Latitude
Unknown
Longitude
Unknown
Altitude
Unknown
Speed
Unknown
Apparent Right ascension
Unknown
Apparent Declination
Unknown
Sunlit
N/A
Visualization observer readout
Local Sidereal Time
04:37:06
Azimuth
Unknown
Elevation
Unknown
Doppler factor
Unknown
Orbital elements
Apogee altitude
298.471 km
Perigee altitude
296.092 km
Semi-major axis
6,675.419 km
Eccentricity
0.00018
Inclination
42.9999°
RAAN
329.8979°
Arg. of periapsis
261.5955°
True anomaly
110.05538°
Mean anomaly
110.0362°
Eccentric anomaly
110.04579°
Mean motion
3.97947 °/min
Orbital period
90.46 mins
BSTAR
-0.0054389
Loading maneuver chart data...
Computing Atmospheric mass density...
Loading historical data...
Loading historical data...
Loading historical data...
Loading historical data...
Loading historical data...
Loading historical data...
Loading historical data...

Documentation

Showing up to 5 results
|